Flag for Canada Weather past 2 weeks in Prince George, British Columbia, Canada

Now
64 °F

Sunny.


Feels Like: 64 °F
Forecast: 49 / 76 °F
Wind: 5 mph from Northeast

Location: Prince George

Current Time: Jun 1, 2015 at 9:02:19 PM

Latest Report: Jun 1, 2015 at 8:00 PM


Visibility: 9 mi

Pressure: 29.80 "Hg

Humidity: 56%

Dew point: 48 °F

Location of Prince GeorgeLocation

Historic Weather in Prince George — Graph

°F

Prince George temperature yesterday

Maximum temperature yesterday: 72 °F (at 6:00 PM)
Minimum temperature yesterday: 41 °F (at 5:00 AM)
Average temperature yesterday: 56 °F

Past Weeks' High & Low Weather Summary

 TemperatureHumidityPressure
High79 °F (May 22, 4:00 PM)100% (May 19, 2:00 AM)30.19 "Hg (May 19, 2:00 AM)
Low39 °F (May 19, 3:04 AM)20% (May 28, 5:00 PM)29.80 "Hg (Jun 1, 7:00 PM)
Average57 °F70%30.00 "Hg
* Reported May 17 7:00 PM — Jun 1 7:00 PM, Prince George, Weather by CustomWeather, © 2015

Note: Actual official high and low records may vary slightly from our data, if they occured in-between our weather recording intervals... More about our weather records

Advertising

Prince George weather history for previous 24 hours

 ConditionsComfort  
Time TempWeatherWind HumidityBarometerVisibility
7:00 PM
Mon, Jun 1
68 °FSunny.9 mph43%29.80 "Hg9 mi
6:00 PM70 °FPassing clouds.7 mph38%29.82 "Hg9 mi
5:00 PM75 °FSunny.8 mph29%29.81 "Hg9 mi
4:00 PM75 °FSunny.8 mph31%29.81 "Hg9 mi
3:00 PM73 °FSunny.8 mph41%29.83 "Hg9 mi
2:00 PM72 °FSunny.7 mph47%29.84 "Hg9 mi
1:00 PM70 °FSunny.6 mph46%29.86 "Hg9 mi
12:00 PM68 °FSunny.5 mph53%29.87 "Hg9 mi
11:00 AM64 °FPassing clouds.5 mph56%29.88 "Hg9 mi
10:00 AM63 °FSunny.5 mph59%29.89 "Hg9 mi
9:00 AM57 °FSunny.5 mph72%29.89 "Hg9 mi
8:00 AM54 °FSunny.3 mph82%29.88 "Hg9 mi
7:00 AM50 °FSunny.3 mph88%29.87 "Hg9 mi
6:00 AM41 °FSunny.No wind93%29.88 "Hg9 mi
5:00 AM41 °FClear.No wind100%29.87 "Hg9 mi
4:00 AM43 °FClear.2 mph93%29.85 "Hg9 mi
3:55 AM41 °FClear.No wind100%29.86 "Hg8 mi
3:00 AM45 °FClear.No wind93%29.85 "Hg9 mi
2:00 AM46 °FPassing clouds.2 mph87%29.85 "Hg9 mi
1:00 AM50 °FClear.No wind88%29.85 "Hg9 mi
12:00 AM54 °FClear.7 mph77%29.84 "Hg9 mi
11:00 PM
Sun, May 31
54 °FPassing clouds.5 mph82%29.84 "Hg9 mi
10:00 PM55 °FSunny.No wind77%29.83 "Hg9 mi
9:00 PM63 °FSunny.2 mph59%29.81 "Hg9 mi
Weather by CustomWeather, © 2015

See weather overviewHow to use our weather pages